This is the latest recevied weather packets stored in our database for station/object KD5VOO. If no packets are shown the sender has not sent any weather packets the latest 1 day(s).
| Time | Temp. | Humidity | Pressure | Rain* | Wind** | Luminosity | Snow |
|---|---|---|---|---|---|---|---|
| 1778033647 | 24.44° C | 64% | 1008.2 hPa | 0 mm | - | 0 W/m² | - |
| 1778033042 | 24.44° C | 64% | 1008.2 hPa | 0 mm | - | 0 W/m² | - |
| 1778032739 | 25° C | 64% | 1008.2 hPa | 0 mm | - | 0 W/m² | - |
| 1778032436 | 25° C | 64% | 1008.2 hPa | 0 mm | - | 0 W/m² | - |
| 1778032133 | 25° C | 64% | 1008.2 hPa | 0 mm | - | 0 W/m² | - |
| 1778031830 | 25° C | 64% | 1008.2 hPa | 0 mm | - | 0 W/m² | - |
| 1778031526 | 25° C | 63% | 1007.8 hPa | 0 mm | - | 0 W/m² | - |
| 1778031224 | 25° C | 63% | 1008.2 hPa | 0 mm | - | 0 W/m² | - |
| 1778030920 | 25° C | 63% | 1008.2 hPa | 0 mm | - | 0 W/m² | - |
| 1778030011 | 25° C | 62% | 1007.5 hPa | 0 mm | - | 0 W/m² | - |
| 1778029103 | 25.56° C | 62% | 1007.5 hPa | 0 mm | - | 0 W/m² | - |
| 1778028800 | 25.56° C | 61% | 1007.5 hPa | 0 mm | - | 0 W/m² | - |
| 1778028496 | 25.56° C | 61% | 1007.1 hPa | 0 mm | - | 0 W/m² | - |
| 1778028194 | 25.56° C | 61% | 1007.1 hPa | 0 mm | - | 0 W/m² | - |
| 1778027889 | 25.56° C | 61% | 1007.5 hPa | 0 mm | - | 0 W/m² | - |
| 1778027586 | 26.11° C | 61% | 1007.5 hPa | 0 mm | - | 2 W/m² | - |
| 1778026979 | 26.11° C | 60% | 1007.5 hPa | 0 mm | - | 7 W/m² | - |
| 1778026372 | 26.67° C | 60% | 1007.1 hPa | 0 mm | - | 11 W/m² | - |
| 1778026069 | 26.67° C | 59% | 1007.5 hPa | 0 mm | - | 13 W/m² | - |
| 1778021830 | 27.78° C | 55% | 1007.1 hPa | 0 mm | - | 86 W/m² | - |
| 1778020010 | 27.78° C | 55% | 1007.5 hPa | 0 mm | - | 134 W/m² | - |
| 1778018495 | 27.78° C | 56% | 1007.8 hPa | 0 mm | - | 51 W/m² | - |
* Rain latest hour (hover to see other rain measurements)
** Current wind speed in m/s (hover to see current wind gust speed)